www.pogodaiklimat.ru

Погода и климат >> Архив погоды >> Узбекистан >> Чимбай


АРХИВ ПОГОДЫ в Чимбае

Время (UTC), дата Ветер
(напр.,м/с)
 
Видим.   Явления Облачность Т
(С)
Тd
(С)
f
(%)
Тe
(С)
Тes
(С)
Комфортность P
(гПа)
Po
(гПа)
Тmin
(С)
Tmax
(С)
R
(мм)
R24
(мм)
S
(см)
21 16.05 З 1 н/о {ливн. осадки, морось} 6/6 600 м
[Cb cap]
+17.5 +15.3 87 +19 +19 1010.6 1002.9
00 17.05 СЗ 2 н/о 5/0
[Ac trans]
+16.4 +14.1 86 +16 +16 1010.7 1002.9
03 17.05 С 2 20 км 5/5 600 м
[Cu med, cong]
+18.7 +14.0 74 +20 +22 1010.8 1003.1
06 17.05 В 1 20 км 5/0
[Ci sp]
+25.2 +14.5 51 +28 +44 жарко 1012.7 1005.1 +15.7 3
09 17.05 ЮВ 2 20 км 8/5 600 м
[Cu med, cong Ci sp]
+28.0 +12.0 37 +29 +37 жарко 1010.7 1003.2
12 17.05 СВ 2 20 км 9/6 300 м
[Cb cap Ci sp]
+29.8 +10.0 29 +30 +32 жарко 1009.5 1002.0
15 17.05 Ю 3 20 км гроза без осадков 9/9 600 м
[Cb cap Ci sp]
+23.8 +8.2 37 +24 +24 комфорт 1009.2 1001.6 +30.5
18 17.05 З 3 н/о {гроза} 9/0
[Ci sp]
+20.4 +15.1 72 +23 +23 комфорт 1010.3 1002.6 +30.5
21 17.05 З 2 н/о 8/0
[Ci sp]
+19.0 +13.4 70 +21 +21 комфорт 1010.1 1002.4
00 18.05 З 2 н/о 8/0
[Ci sp]
+17.6 +12.6 72 +18 +18 1009.5 1001.8
03 18.05 СЗ 1 20 км 4/0
[Ci sp]
+21.8 +11.4 52 +24 +28 комфорт 1009.4 1001.8
06 18.05 СЗ 2 20 км 4/0
[Ci sp]
+29.0 +9.8 30 +29 +43 жарко 1010.1 1002.6 +15.9
09 18.05 З 3 20 км 8/8 600 м
[Cu med, cong]
+32.5 +10.0 25 +32 +35 жарко 1009.3 1002.0
12 18.05 З 3 20 км 8/4 600 м
[Cu med, cong Ac trans Ci sp]
+32.3 +5.8 19 +30 +33 жарко 1008.9 1001.6
15 18.05 СВ 3 20 км 9/5 600 м
[Cb cap Ac trans Ci sp]
+26.0 +5.6 27 +25 +25 комфорт 1010.2 1002.6 +32.5
18 18.05 штиль 0 н/о 5/0
[Ci sp]
+20.2 +7.6 44 +21 +21 комфорт 1011.5 1003.8 +32.5
21 18.05 штиль 0 н/о ясно +18.2 +9.3 56 +18 +18 1011.1 1003.4
00 19.05 штиль 0 н/о 8/0
[Ac trans]
+16.8 +9.3 61 +17 +17 1011.1 1003.4
03 19.05 С 5 20 км 6/4 1000 м
[Cu med, cong Ac trans Ci sp]
+21.3 +11.4 53 +23 +24 комфорт 1011.0 1003.3
06 19.05 СВ 5 20 км {ливн. осадки} 6/0
[Ac cast]
+25.2 +10.0 38 +26 +31 жарко 1010.6 1003.0 +16.4
09 19.05 ЮВ 2 20 км 5/0
[Ci sp]
+31.5 +9.9 26 +31 +47 жарко 1010.3 1002.8
12 19.05 ЮЗ 5 20 км 8/5 600 м
[Cu med, cong Ac trans Ci sp]
+32.8 +7.1 20 +31 +32 жарко 1008.9 1001.6
15 19.05 Ю 1 20 км 3/0
[Ci sp]
+30.0 +12.1 33 +31 +31 жарко 1008.6 1001.1 +34.2
18 19.05 ЮВ 1 н/о 4/0
[Ci sp]
+22.6 +13.6 57 +26 +26 жарко 1007.2 999.6 +34.2 0.4
21 19.05 Ю 1 н/о ясно +22.8 +13.9 57 +26 +26 жарко 1007.1 999.5
00 20.05 Ю 1 н/о 4/0
[Ci sp]
+22.0 +13.7 59 +25 +25 комфорт 1007.3 999.7
03 20.05 Ю 4 20 км 4/0
[Ci sp]
+24.1 +10.4 42 +25 +28 комфорт 1006.9 999.3
06 20.05 ЮЗ 3 20 км 3/0
[Ci fib]
+30.6 +14.3 37 +32 +45 жарко 1007.3 998.8 +21.5
09 20.05 Ю 4 20 км 6/0
[Ci fib]
+34.3 +9.0 21 +33 +44 жарко 1006.7 999.4
12 20.05 СЗ 4 20 км 9/6 600 м
[Cb cap Ac trans Ci sp]
+33.0 +12.6 29 +33 +35 жарко 1003.5 996.2
15 20.05 С 7 20 км 10/10 600 м
[Cb cap]
+27.4 +8.0 29 +27 +27 жарко 1005.5 998.0 +36.3
18 20.05 С 2 н/о зарница 9/9 600 м
[Cb cap]
+22.1 +4.3 31 +22 +22 комфорт 1007.7 1000.1 +36.3
21 20.05 ЮЗ 1 н/о 4/0
[]
+17.4 +7.6 53 +18 +18 1008.7 1001.0
00 21.05 СЗ 2 н/о 3/0
[Ci sp]
+16.2 +6.4 52 +16 +16 1009.3 1001.5
03 21.05 З 3 20 км 5/0
[Ci sp]
+17.2 +4.3 42 +17 +20 1010.9 1003.2
06 21.05 СЗ 6 20 км 6/0
[Ci sp]
+22.3 +3.4 29 +22 +28 комфорт 1012.3 1004.7 +15.3
09 21.05 З 4 20 км 5/0
[Ci sp]
+24.0 +0.4 21 +23 +34 комфорт 1013.0 1005.4
12 21.05 СЗ 6 20 км 3/0
[Ci sp]
+24.2 +1.5 23 +23 +26 комфорт 1014.9 1007.2
15 21.05 СЗ 3 20 км 4/0
[Ci sp]
+20.7 +2.3 30 +21 +22 комфорт 1015.4 1007.6 +25.8
18 21.05 С 2 н/о ясно +14.9 -0.2 36 +15 +15 1017.2 1009.3 +25.8
21 21.05 СЗ 2 н/о 3/0
[Ci sp]
+12.9 -0.5 40 +13 +13 1018.2 1010.3
00 22.05 С 2 н/о 3/0
[Ci sp]
+9.7 -0.2 50 +9 +9 1019.7 1011.6
03 22.05 СВ 2 20 км 5/0
[Ci sp]
+14.1 +1.1 41 +14 +18 1020.9 1013.0
06 22.05 СВ 3 20 км 8/0
[Ci sp]
+19.0 -2.2 24 +19 +30 1022.2 1014.4 +9.2
09 22.05 С 3 20 км 3/0
[Ci sp]
+20.5 -2.7 21 +21 +35 комфорт 1021.6 1013.8
12 22.05 СЗ 2 20 км 3/0
[Ci sp]
+21.6 -1.9 21 +21 +28 комфорт 1020.1 1012.4
15 22.05 СЗ 3 20 км 3/0
[Ci sp]
+20.6 +3.0 31 +21 +21 комфорт 1020.9 1013.1 +22.7
18 22.05 С 2 н/о ясно +13.6 +0.2 40 +13 +13 1021.7 1013.8 +22.7
21 22.05 С 3 н/о ясно +11.3 +0.6 48 +10 +10 1021.5 1013.4
00 23.05 СВ 2 н/о 3/0
[Ci sp]
+8.8 +0.9 58 +7 +7 1021.0 1012.9
03 23.05 В 4 20 км 3/0
[Ci sp]
+15.5 +4.6 48 +15 +17 1020.9 1013.0
06 23.05 В 3 20 км 3/0
[Ci sp]
+22.2 +0.4 24 +22 +34 комфорт 1019.6 1011.9 +8.1
09 23.05 В 5 20 км 5/0
[Ci sp]
+25.5 -0.4 18 +24 +32 комфорт 1017.6 1009.9
12 23.05 ЮВ 3 20 км 5/0
[Ci sp]
+26.2 -1.2 16 +24 +30 комфорт 1016.1 1008.4
15 23.05 Ю 1 20 км 8/0
[Ci sp]
+23.4 +4.5 29 +23 +23 комфорт 1014.9 1007.2 +26.9
18 23.05 СВ 1 н/о 4/0
[Ci sp]
+15.0 +3.4 46 +16 +16 1013.7 1005.8 +26.9

 

Местоположение метеостанции Чимбай (Каракалпакстан, Узбекистан): широта 42.95 долгота 59.82 высота над уровнем моря 66 м.

В архиве по умолчанию представлена погода в Чимбае за последнюю неделю. Архивные данные за месяц целиком и за предыдущие месяцы, начиная с января 2011 года, Вы можете получить, выбрав интересующий диапазон дат из раскрывающегося списка и нажав кнопку "Ввод!".


*Определитесь, кто Вы:
робот инопланетянин человек

Внимание! Время в таблицах - всемирное. Для получения местного времени необходимо прибавить поправку, которая равна 5 ч.

Смотрите также архив погоды в соседних городах и на ближайших метеорологических станциях:

Погода в Тахтакупыре (Каракалпакстан, Узбекистан) (55 км)
Погода в Нукусе (Каракалпакстан, Узбекистан) (58 км)
Погода в Тахиаташе (Каракалпакстан, Узбекистан) (64 км)
Погода в Кунграде (Каракалпакстан, Узбекистан) (74 км)
Погода в Кенеургенче (Дашогузский велаят, Туркменистан) (92 км)
Погода в Муйнаке (Каракалпакстан, Узбекистан) (125 км)
Погода в Гурлене (Хорезмская область, Узбекистан) (131 км)
Погода в Дашогузе (Дашогузский велаят, Туркменистан) (133 км)
Погода в Ургенче (Хорезмская область, Узбекистан) (165 км)
Погода в Шах-Сенеме (Дашогузский велаят, Туркменистан) (177 км)

Пояснения к столбцам:

Ветер - указаны скорость ветра в м/с - средняя за 10 мин, порывы в срок и между сроками (в фигурных скобках) и направление, откуда дует ветер: С - северный, СВ - северо-восточный, В - восточный, ЮВ - юго-восточный, Ю - южный, ЮЗ - юго-западный, З - западный, СЗ - северо-западный.
Видимость - горизонтальная дальность видимости в метрах или километрах. При видимости от 1 до 10 км при отсутствии осадков обычно наблюдается дымка, при ухудшении видимости до 1 км и менее - туман. В сухую погоду видимость может ухудшаться дымом, пылью или мглою.
Явления - указаны атмосферные явления, наблюдавшиеся в срок или в последний час перед сроком; фигурными скобками обозначены явления, наблюдавшиеся между сроками (за 1-3 часа до срока); квадратными скобками обозначены град или гололедные отложения с указанием их диаметра в мм.
Облачность - указаны через наклонную черту общая и нижняя облачность в баллах и высота нижней границы облаков в метрах; квадратными скобками обозначены формы облаков: Ci - перистые, Cs - перисто-слоистые, Cc - перисто-кучевые, Ac - высококучевые, As - высокослоистые, Sc - слоисто-кучевые, Ns - слоисто-дождевые, Cu - кучевые, Cb - кучево-дождевые. Подробнее классификацию облаков см. в Атласе облаков (PDF).
T - Температура воздуха - температура, измеренная на высоте 2 м над землей.
Td - Температура точки росы - температура, при понижении до которой содержащийся в воздухе водяной пар достигнет насыщения.
f - Относительная влажность воздуха - влажноcть воздуха, измеренная на высоте 2 м над землей.
Te - Эффективная температура - температура, которую ощущает одетый по сезону человек в тени. Характеристика душности погоды. При расчете учитывается влияние влажности воздуха и скорости ветра на теплоощущения человека.
Tes - Эффективная температура на солнце - температура, которую ощущает человек, с поправкой на солнечный нагрев. Характеристика знойности погоды. Зависит от высоты солнца над горизонтом, облачности и скорости ветра. Ночью, в пасмурную погоду, а также при ветре 12 м/с и более поправка равна нулю.
P - Атмосферное давление - приведенное к уровню моря атмосферное давление.
Po - Атмосферное давление - измеренное на уровне метеостанции атмосферное давление.
Tmin - Минимальная температура - минимум температуры воздуха на высоте 2 м над землей.
Tmax - Максимальная температура - максимум температуры воздуха на высоте 2 м над землей.
R - Количество осадков - Количество выпавших осадков за период времени, мм. При наведении курсора мыши на число - период времени, за который выпало указанное количество осадков.
R24 - Количество осадков - Количество выпавших осадков за 24 часа, мм.
S - Снежный покров - Высота снежного покрова, см. При наведении курсора мыши на число - состояние снежного покрова и степень покрытия местности в баллах.